ヒル彗星

420P/Hill (2022)

English version
Home page
Updated on September 11, 2022

---------------------------------------------------------------------

・ プロフィール

符号 420P/2021 E1
検出日 2021年3月11日
検出光度 20.6等
検出者 E. Schwab (Egelsbach, Germany)

・ 軌道要素

Epoch 2022 Aug. 9.0 TT = JDT 2459800.5
T 2022 May 22.40119 TT                                  Rudenko
q   2.7883450            (2000.0)            P               Q
n   0.07563216     Peri.  157.06453     +0.87605853     +0.48148186
a   5.5377294      Node   173.95082     -0.47208119     +0.86753763
e   0.4964823      Incl.   14.50497     -0.09828938     +0.12471438
P  13.0
From 189 observations 2009 Aug. 16-2022 July 29, mean residual 0".8.

・ 光度変化

        m1 = 12.5 + 5 logΔ + 10.0 log r

---------------------------------------------------------------------

軌道要素はM.P.E.C. 2022-O116に掲載されたものです。
光度グラフはComet for Windowsで作成したものです。

---------------------------------------------------------------------

Copyright(C) Seiichi Yoshida (comet@aerith.net). All rights reserved.